Location: Ste-F�licit�
(48.8999°N, 67.3360°W)
Time: 05:44:23
(UTC-05:00)

DELFI C3 - Pass Details

Date: 25 October 2020
Orbit: 532 x 551 km, 97.4° (Epoch: 28 November)

Event Time Altitude Azimuth Distance (km) Brightness Sun altitude
Exits shadow 20:12:45 17° 346° (NNW) 1,463 ? -28.9°
Drops below altitude 10° 20:13:41 10° 347° (NNW) 1,843 ? -29.0°
Sets 20:15:49 0° 347° (NNW) 2,741 ? -29.4°
